Погода в Ди

Франция     44°45′16″N   5°22′07″E
темп.,
°C
ветер,
м/с
пор.,
м/с
влажн.,
%
обл.,
%
осадки,
мм/ч
давл.,
гПа
погр.,
м
21 апреля, ср
ср2123:00+7ююв1177100 0.1 101621
02:00+6вюв2181100 0.2 101623
05:00+6вюв1181100 0.1 101613
08:00+7ююв1180100 0.1 101673
11:00+11зюз235590 0.1 10161274
14:00+13зюз344698 0.2 10151855
17:00+10зюз237095 0.8 1015871
20:00+8з119169 1.8 1017108
22 апреля, чт
чт2223:00+7ю119189 0.1 101836
02:00+6вюв009373 0.2 101820
05:00+5в119418 0.0 101810
08:00+7в118744 0.0 101970
11:00+12з216343 0.0 10181099
14:00+13сз215799 0.1 10181286
17:00+13сз126030 0.1 1017839
20:00+11ссз12734 0.1 101725
23 апреля, пт
пт2323:00+8св22861 0.0 102023
02:00+6всв11900 0.0 102012
05:00+5всв11910 0.0 102015
08:00+7ссв11830 0.0 102173
11:00+13зсз22610 0.0 1020872
14:00+16з325031 0.0 10201441
17:00+16зсз325027 0.0 10191329
20:00+12зсз117117 0.1 102018
24 апреля, сб
сб2423:00+9в11807 0.0 102210
02:00+7в11870 0.0 102210
05:00+7в11890 0.0 102211
08:00+9в11790 0.0 102254
11:00+16зюз22550 0.0 1021887
14:00+18з22445 0.0 10191671
17:00+18з43398 0.0 10191564
20:00+14юз11535 0.0 101911
25 апреля, вс
вс2523:00+9вюв116798 0.0 102011
02:00+8в2174100 0.0 102116
05:00+8в2274100 0.0 101921
08:00+10вюв116898 0.0 101957
11:00+17ю234798 0.0 1018991
14:00+20юз3535100 0.0 10161858
17:00+18юз4641100 0.0 10161537
20:00+11ююв2477100 0.1 1017141